Voltar ao catálogo

STARLINK-3856

AtivoComunicaçõesVLEO
NORAD 52459·PAYLOAD·🇺🇸 United States

Lançado May 6, 2022 de Cape Canaveral Space Force Station

Loading…

Próximas Passagens (próximas 24 horas)

TLE

AtualizadoSource: CelesTrak SupGP

Época: Sep 14, 2026, 21:15 UTC

1 52459C 22049J   26257.88590278  .00035677  00000+0  10827-2 0  2575
2 52459  53.1584 280.1535 0001092  90.7713   7.3528 15.33528956    19

Acompanhe STARLINK-3856 em tempo real com AllMySat

Download on the App Store